Regional Weather Roundup
Issued by NWS

Home | Current Version | Previous Version | Text Only | Print | Product List | Glossary Off
Versions: 1 2 3 4 5 6 7 8 9 10 11 12 13 14 15 16 17 18 19 20 21 22 23 24 25 26 27 28 29 30 31 32 33 34 35 36 37 38 39 40 41 42 43 44 45 46 47 48 49 50

000
ASUS43 KMPX 280210
RWRMN
WEATHER ROUNDUP FOR MINNESOTA
NATIONAL WEATHER SERVICE TWIN CITIES/CHANHASSEN MN
800 PM CST TUE JAN 27 2015


NOTE: "FAIR" INDICATES FEW OR NO CLOUDS BELOW 12,000 FEET WITH NO
SIGNIFICANT WEATHER AND/OR OBSTRUCTIONS TO VISIBILITY. N/A MEANS
CURRENT SKY AND/OR WEATHER CONDITIONS ARE NOT AVAILABLE.

MNZ060>063-068>070-280300-
   Twin Cities Metro

CITY           SKY/WX    TMP DP  RH WIND       PRES   REMARKS
TWIN CITIES    CLOUDY    31  25  78 SE9       30.14S WCI  23
ST PAUL        CLOUDY    31  25  78 SE10      30.16R WCI  22
CRYSTAL        CLOUDY    32  26  78 SE10      30.12S WCI  24
BLAINE         CLOUDY    34  28  80 SE7       30.13R WCI  28
LAKEVILLE      CLOUDY    30  27  86 S12       30.13S WCI  21
EDEN PRAIRIE   CLOUDY    32  26  78 SE15      30.12R WCI  22
SOUTH ST PAUL  CLOUDY    32  26  78 SE5       30.15S WCI  27
LAKE ELMO      CLOUDY    32  27  80 SE6       30.15F WCI  26
$$
MNZ001>005-007-008-013>017-022>024-027-028-280300-
   Northwest Minnesota

CITY           SKY/WX    TMP DP  RH WIND       PRES   REMARKS
BEMIDJI        MOCLDY    28  26  89 SE10      29.99F WCI  19
HALLOCK        CLOUDY    32  30  93 S9        29.94R WCI  24
ROSEAU         PTCLDY    30  27  86 SE8       29.95F WCI  23
WARROAD        MOCLDY    30  27  86 SE9       29.97F WCI  22
THIEF RVR FALL PTCLDY    30  27  86 SE10      29.94F WCI  21
CROOKSTON      CLOUDY    32  30  93 S16G22    29.96F WCI  21
FOSSTON        CLEAR     28  25  86 SE10      29.96F WCI  19
DETROIT LAKES  CLOUDY    32  30  93 SE18      29.99S WCI  20
MOORHEAD       CLOUDY    34  34 100 S21       29.98R WCI  22
PARK RAPIDS    CLOUDY    31  27  85 SE18      30.01F WCI  19
MAHNOMEN       FAIR      30  27  90 SE9       29.96S WCI  21
$$
MNZ006-009>011-018-025>026-280300-
   North Central Minnesota

CITY           SKY/WX    TMP DP  RH WIND       PRES   REMARKS
BAUDETTE       CLOUDY    32  24  72 SE7       29.98F WCI  26
FLAG ISLAND    CLOUDY    30  27  86 S14       29.96F WCI  20
INTL FALLS     LGT SNOW  29  26  89 S6        30.03F FOG     WCI  23
WASKISH        MOCLDY    30  27  86 SE7       30.00F WCI  23
BIG FORK       CLOUDY    30  25  80 SE7       30.04F WCI  23
LONGVILLE      CLOUDY    30  27  86 SE12G17   30.04F WCI  21
GRAND RAPIDS   MOCLDY    28  23  80 SE10      30.06S WCI  19
CRANE LAKE     CLOUDY    25  23  93 CALM      30.09F
ORR            LGT SNOW  27  23  86 SE8       30.04F WCI  18
COOK           FLURRIES  27  25  93 S6        30.07F WCI  20
WALKER         CLOUDY    30  26  83 SE10      30.02F WCI  21
$$
MNZ012-019>021-037-280300-
   Northeast Minnesota

CITY           SKY/WX    TMP DP  RH WIND       PRES   REMARKS
DULUTH         CLOUDY    27  22  81 S7        30.11S WCI  19
ELY            CLOUDY    27  23  86 S5        30.08F WCI  21
HIBBING        CLOUDY    29  22  75 S7        30.08F WCI  22
EVELETH        CLOUDY    28  25  86 S7        30.10F WCI  21
DULUTH HARBOR  CLOUDY    30  25  80 CALM      30.16S
TWO HARBORS    CLOUDY    30  25  80 S6        30.11F WCI  24
SILVER BAY     CLOUDY    28  25  86 S5        30.11F WCI  23
GRAND MARAIS     N/A     31  24  75 SW15      30.15R WCI  20
G MARAIS ARPRT   N/A     23  19  86 S6        30.09S WCI  16
$$
MNZ029>031-032-039>041-046>048-054>057-064-280300-
   West Central Minnesota

CITY           SKY/WX    TMP DP  RH WIND       PRES   REMARKS
FERGUS FALLS   CLOUDY    30  28  93 S15       30.02S WCI  19
WHEATON        CLOUDY    30  28  93 SE15      29.99F WCI  19
MORRIS         CLOUDY    34  30  86 SE21G26   29.99S WCI  22
ALEXANDRIA     CLOUDY    32  28  85 SE15      30.03S WCI  22
ELBOW LAKE     CLOUDY    31  30  95 SE16G22   30.00S WCI  20
WADENA         CLOUDY    28  27  93 S9G16     30.03R WCI  20
GLENWOOD       CLOUDY    30  30 100 SE14      30.04S WCI  20
APPLETON       CLEAR     34  32  93 SE13      30.00F WCI  25
BENSON         CLOUDY    34  30  86 S14G22    30.03S WCI  24
ORTONVILLE     PTCLDY    32  30  93 SE13      29.97F WCI  22
MADISON        CLEAR     37  36  93 SE14      29.99S
WILLMAR        CLOUDY    34  30  86 SE16G22   30.06F WCI  23
$$
MNZ033>034-036-042>043-049>051-058-059-280300-
   Central Minnesota

CITY           SKY/WX    TMP DP  RH WIND       PRES   REMARKS
ST CLOUD       CLOUDY    32  26  78 S12       30.09S WCI  23
SAUK CENTRE    CLOUDY    32  29  89 S15       30.05S WCI  22
PAYNESVILLE    CLOUDY    30  28  92 E13       30.06F WCI  20
AITKIN         CLOUDY    34  25  69 S8        30.07S WCI  27
PINE RIVER     CLOUDY    30  27  86 S13       30.08F WCI  20
BRAINERD       CLOUDY    31  25  78 SE9       30.07S WCI  23
STAPLES        CLOUDY    30  27  86 S10G18    30.04F WCI  21
LONG PRAIRIE   CLOUDY    32  28  86 SE12      30.05S WCI  23
LITTLE FALLS   CLOUDY    32  27  80 SE8       30.08S WCI  25
LITCHFIELD     CLOUDY    34  32  93 SE8       30.08F WCI  27
BUFFALO        CLOUDY    32  27  81 SE10      30.13R WCI  24
MAPLE LAKE     CLOUDY    33  30  88 SE13      30.11S WCI  24
$$
MNZ037-044-045-052-053-280300-
   East Central Minnesota

CITY           SKY/WX    TMP DP  RH WIND       PRES   REMARKS
PRINCETON      CLOUDY    34  27  75 SE9       30.12R WCI  26
MORA           CLOUDY    28  23  80 SE3       30.14S
CAMBRIDGE      CLOUDY    34  25  69 SE6       30.11S WCI  29
RUSH CITY      CLOUDY    30  25  81 SE8       30.14R WCI  22
MOOSE LAKE     MOCLDY    30  23  74 S3        30.11S
HINCKLEY       CLOUDY    30  27  86 SE6       30.13S WCI  24
CLOQUET        CLOUDY    28  23  80 SE3       30.11S
MCGREGOR       CLOUDY    30  27  86 S7        30.09F WCI  23
$$
MNZ071>073-080-081-089-090-097-098-280300-
   Southwest Minnesota

CITY           SKY/WX    TMP DP  RH WIND       PRES   REMARKS
MONTEVIDEO     PTCLDY    34  34 100 S13G20    30.02F WCI  25
GRANITE FALLS  MOCLDY    35  32  90 SE9G16    30.04S WCI  27
CANBY          CLEAR     33  32  98 SE8       29.99F WCI  25
MARSHALL       CLEAR     34  30  86 SE13      30.01F WCI  25
REDWOOD FALLS  CLOUDY    35  31  85 SE16      30.05S WCI  25
OLIVIA         CLOUDY    32  32 100 SE14      30.05F WCI  22
PIPESTONE      CLEAR     36  34  93 S13G20    29.97S
WINDOM         CLEAR     34  32  93 SE12      30.04S WCI  25
WORTHINGTON    CLEAR     34  30  86 SE12      30.02F WCI  25
JACKSON        CLEAR     34  32  93 SE12      30.05F WCI  25
TRACY          CLEAR     35  33  92 S13       30.00F WCI  26
SLAYTON        CLEAR     33  32  96 SE13      30.00F WCI  24
$$
MNZ065>067-074>077-082>085-091>093-280300-
   South Central Minnesota

CITY           SKY/WX    TMP DP  RH WIND       PRES   REMARKS
MANKATO        CLOUDY    34  27  75 S12       30.10S WCI  25
NEW ULM        CLOUDY    34  30  86 SE13      30.08F WCI  25
ST JAMES       PTCLDY    34  30  86 SE8       30.09S WCI  27
FAIRMONT       PTCLDY    32  27  80 SE13      30.08R WCI  22
GLENCOE        CLOUDY    34  31  91 SE9G17    30.09S WCI  26
FARIBAULT      CLOUDY    32  28  86 SE8       30.13R WCI  25
OWATONNA       CLOUDY    32  28  86 SE12      30.12S WCI  23
WASECA         CLOUDY    32  28  86 S13       30.12F WCI  22
ALBERT LEA     CLOUDY    32  28  86 S13       30.12S WCI  22
$$
MNZ078>079-086>088-094>096-280300-
   Southeast Minnesota

CITY           SKY/WX    TMP DP  RH WIND       PRES   REMARKS
ROCHESTER      CLOUDY    28  24  85 S13       30.14S WCI  17
RED WING       CLOUDY    30  23  74 S5        30.16S WCI  25
STANTON        CLOUDY    32  27  81 S6        30.13S WCI  26
DODGE CENTER   CLOUDY    30  28  93 SE14      30.13R WCI  20
WINONA         CLOUDY    30  23  74 SE7       30.19F WCI  23
AUSTIN         CLOUDY    30  27  86 S10       30.13F WCI  21
PRESTON        CLOUDY    27  23  84 S7        30.16S WCI  20
$$
ABBREVIATIONS USED IN REMARKS
   TC - TEMPERATURES IN CELSIUS
  WCI - WIND CHILL INDEX
   HX - HEAT INDEX
  VSB - VISIBILITY
$$



USA.gov is the U.S. government's official web portal to all federal, state and local government web resources and services.